Regional Weather Roundup
Issued by NWS Little Rock, AR

Home | Current Version | Previous Version | Text Only | Print | Product List | Glossary On
Versions: 1 2 3 4 5 6 7 8 9 10 11 12 13 14 15 16 17 18 19 20 21 22 23 24 25 26 27 28 29 30 31
000
ASUS44 KLZK 251105
RWRLZK

WEATHER ROUNDUP FOR ARKANSAS
NATIONAL WEATHER SERVICE LITTLE ROCK AR
600 AM CDT SUN SEP 25 2016

NOTE: "FAIR" INDICATES FEW OR NO CLOUDS BELOW 12,000 FEET WITH NO
SIGNIFICANT WEATHER AND/OR OBSTRUCTIONS TO VISIBILITY.

ARZ001-003-010-029-251200-
NORTHWEST ARKANSAS

CITY           SKY/WX    TMP DP  RH WIND       PRES   REMARKS
FAYETTEVILLE   CLEAR     65  65 100 CALM      30.08R
FORT SMITH     MOCLDY    71  67  87 E3        30.04R
HARRISON       CLOUDY    66  65  96 SE5       30.09R
BENTONVILLE    CLOUDY    68  63  83 E5        30.08S
ROGERS         PTCLDY    66  65  96 CALM      30.09R
SILOAM SPGS    CLOUDY   N/A N/A N/A CALM        N/A
HIGHFILL       CLEAR     67  66  97 CALM      30.07R
SPRINGDALE     CLEAR     70  66  88 SE3       30.09
$$

ARZ004-005-016-251200-
NORTH CENTRAL ARKANSAS

CITY           SKY/WX    TMP DP  RH WIND       PRES   REMARKS
BATESVILLE     CLEAR     70  66  88 CALM      30.05R
FLIPPIN        CLOUDY    66  63  88 CALM      30.05R
MTN HOME       CLOUDY    67  67 100 CALM      30.07R
$$

ARZ040-041-251200-
WEST CENTRAL ARKANSAS

CITY           SKY/WX    TMP DP  RH WIND       PRES   REMARKS
MENA           PTCLDY    68  66  94 CALM      30.07R
MOUNT IDA      PTCLDY    67  66  97 CALM      30.04R FOG
$$

ARZ009-017-025-026-028-251200-
NORTHEAST ARKANSAS

CITY           SKY/WX    TMP DP  RH WIND       PRES   REMARKS
CORNING          N/A     72  72 100 NE5       30.06R
JONESBORO      CLEAR     70  67  90 CALM      30.04R
NEWPORT        CLEAR     69  68  96 CALM      30.04R
WALNUT RIDGE   CLEAR     72  66  83 NE5       30.04R
BLYTHEVILLE    CLEAR     71  67  87 E6        30.05R
$$

ARZ022-023-033-042-044-251200-
CENTRAL ARKANSAS

CITY           SKY/WX    TMP DP  RH WIND       PRES   REMARKS
LITTLE ROCK    PTCLDY    74  70  87 CALM      30.05S
JACKSONVILLE   CLEAR     69  69  99 CALM      30.02F
SEARCY         CLEAR     71  71 100 CALM      30.05R
HOT SPRINGS    CLEAR     70  68  93 CALM      30.05R
RUSSELLVILLE   CLEAR     68  67  96 CALM      30.04R
$$

ARZ036-251200-
EAST ARKANSAS

CITY           SKY/WX    TMP DP  RH WIND       PRES   REMARKS
WEST MEMPHIS   PTCLDY    70  67  90 CALM      30.02S
$$

ARZ050-053-066-070-073-251200-
SOUTHWEST ARKANSAS

CITY           SKY/WX    TMP DP  RH WIND       PRES   REMARKS
ARKADELPHIA    FOG       66  66 100 CALM      30.05R VSB 3/4
TEXARKANA      PTCLDY    70  68  93 CALM      30.03S
EL DORADO      CLEAR     69  68  96 CALM      30.04R
DE QUEEN       CLOUDY    69  69 100 CALM      30.01S FOG
$$

ARZ056-057-069-251200-
SOUTHEAST ARKANSAS

CITY           SKY/WX    TMP DP  RH WIND       PRES   REMARKS
PINE BLUFF     CLEAR     70  69  97 CALM      30.03S
STUTTGART      PTCLDY    72  66  83 W6        30.04R
MONTICELLO     CLEAR     71  69  93 CALM      30.03S

$$






USA.gov is the U.S. government's official web portal to all federal, state and local government web resources and services.